This is the latest recevied weather packets stored in our database for station/object WE8L. If no packets are shown the sender has not sent any weather packets the latest 10 day(s).
| Time | Temp. | Humidity | Pressure | Rain* | Wind** | Luminosity | Snow |
|---|---|---|---|---|---|---|---|
| 1777746913 | 11.67° C | 38% | 1019.8 hPa | 0 mm | - | 88 W/m² | - |
| 1777746609 | 12.22° C | 40% | 1019.9 hPa | 0 mm | - | 327 W/m² | - |
| 1777746304 | 12.22° C | 41% | 1019.9 hPa | 0 mm | - | 684 W/m² | - |
| 1777746000 | 12.22° C | 38% | 1020 hPa | 0 mm | - | 826 W/m² | - |
| 1777745698 | 11.67° C | 41% | 1019.9 hPa | 0 mm | - | 149 W/m² | - |
| 1777745397 | 12.22° C | 39% | 1020 hPa | 0 mm | - | 108 W/m² | - |
| 1777745093 | 12.22° C | 46% | 1020 hPa | 0 mm | - | 773 W/m² | - |
| 1777744789 | 12.22° C | 40% | 1020.1 hPa | 0 mm | - | 311 W/m² | - |
| 1777744484 | 11.67° C | 41% | 1020 hPa | 0 mm | - | 237 W/m² | - |
| 1777744181 | 11.67° C | 41% | 1019.9 hPa | 0 mm | - | 95 W/m² | - |
| 1777743878 | 12.22° C | 40% | 1020 hPa | 0 mm | - | 481 W/m² | - |
| 1777743574 | 11.11° C | 42% | 1020.1 hPa | 0 mm | - | 670 W/m² | - |
| 1777743271 | 11.67° C | 41% | 1020 hPa | 0 mm | - | 501 W/m² | - |
| 1777742970 | 11.67° C | 43% | 1020.2 hPa | 0 mm | - | 146 W/m² | - |
| 1777742666 | 11.67° C | 40% | 1020.2 hPa | 0 mm | - | 296 W/m² | - |
| 1777742362 | 12.22° C | 43% | 1020.3 hPa | 0 mm | - | 94 W/m² | - |
| 1777742058 | 11.67° C | 43% | 1020.1 hPa | 0 mm | - | 333 W/m² | - |
| 1777741756 | 11.67° C | 42% | 1020.3 hPa | 0 mm | - | 353 W/m² | - |
| 1777741453 | 11.67° C | 43% | 1020.5 hPa | 0 mm | - | 120 W/m² | - |
| 1777741148 | 11.67° C | 43% | 1020.3 hPa | 0 mm | - | 180 W/m² | - |
| 1777740846 | 11.11° C | 41% | 1020.3 hPa | 0 mm | - | 120 W/m² | - |
| 1777740542 | 11.11° C | 46% | 1020.4 hPa | 0 mm | - | 139 W/m² | - |
| 1777740239 | 11.11° C | 42% | 1020.5 hPa | 0 mm | - | 93 W/m² | - |
| 1777739935 | 11.11° C | 44% | 1020.4 hPa | 0 mm | - | 329 W/m² | - |
| 1777739632 | 10.56° C | 45% | 1020.6 hPa | 0 mm | - | 270 W/m² | - |
* Rain latest hour (hover to see other rain measurements)
** Current wind speed in m/s (hover to see current wind gust speed)